JST221 YSSY-NZQN

Flight info

Callsign JST221
Flight time N/A
Altitude 35000
Route OPTIC Y84 TONIM P766 ADKOS
Aircraft A320/M-SDE3FGHIRWY/LB1

Departure

Time 2026-04-30 13:50
Airport Sydney Kingsford Smith International Airport (YSSY)

Arrival

Time N/A
Airport Queenstown Airport (NZQN)
Time Latitude Longitude Altitude Speed Heading
2026-04-30 13:18 -33.93250 151.16792 21 ft 0 kts 298°
2026-04-30 13:25 -33.93258 151.16811 21 ft 2 kts 298°
2026-04-30 13:26 -33.93281 151.16864 23 ft 2 kts 294°
2026-04-30 13:26 -33.93283 151.16903 24 ft 2 kts 247°
2026-04-30 13:27 -33.93262 151.16934 24 ft 2 kts 212°
2026-04-30 13:28 -33.93216 151.16951 22 ft 2 kts 176°
2026-04-30 13:28 -33.93206 151.16950 22 ft 0 kts 168°
2026-04-30 13:35 -33.93207 151.16950 22 ft 1 kts 168°
2026-04-30 13:35 -33.93277 151.16983 21 ft 10 kts 136°
2026-04-30 13:36 -33.93408 151.17078 20 ft 13 kts 169°
2026-04-30 13:36 -33.93503 151.17103 20 ft 13 kts 169°
2026-04-30 13:36 -33.93694 151.17151 20 ft 16 kts 170°
2026-04-30 13:37 -33.93818 151.17183 15 ft 19 kts 168°
2026-04-30 13:37 -33.93958 151.17270 18 ft 9 kts 96°
2026-04-30 13:38 -33.93922 151.17443 21 ft 12 kts 73°
2026-04-30 13:38 -33.93899 151.17539 19 ft 12 kts 74°
2026-04-30 13:38 -33.93861 151.17740 20 ft 10 kts 106°
2026-04-30 13:39 -33.93972 151.17799 23 ft 10 kts 167°
2026-04-30 13:39 -33.94154 151.17845 26 ft 12 kts 167°
2026-04-30 13:40 -33.94237 151.17867 26 ft 13 kts 167°
2026-04-30 13:40 -33.94331 151.17891 26 ft 15 kts 167°
2026-04-30 13:40 -33.94428 151.17913 26 ft 13 kts 180°
2026-04-30 13:40 -33.94518 151.17883 24 ft 14 kts 178°
2026-04-30 13:41 -33.94611 151.17906 27 ft 13 kts 168°
2026-04-30 13:41 -33.94703 151.17930 27 ft 13 kts 168°
2026-04-30 13:41 -33.94801 151.17955 22 ft 16 kts 167°
2026-04-30 13:41 -33.94915 151.17985 22 ft 17 kts 168°
2026-04-30 13:42 -33.95025 151.18013 25 ft 15 kts 168°
2026-04-30 13:42 -33.95123 151.18037 28 ft 12 kts 168°
2026-04-30 13:42 -33.95160 151.18204 27 ft 13 kts 77°
2026-04-30 13:43 -33.95139 151.18321 24 ft 15 kts 78°
2026-04-30 13:43 -33.95116 151.18446 27 ft 12 kts 81°
2026-04-30 13:43 -33.95129 151.18546 26 ft 13 kts 117°
2026-04-30 13:43 -33.95193 151.18626 24 ft 14 kts 139°
2026-04-30 13:44 -33.95273 151.18698 27 ft 15 kts 152°
2026-04-30 13:44 -33.95376 151.18737 25 ft 17 kts 168°
2026-04-30 13:44 -33.95501 151.18770 22 ft 19 kts 166°
2026-04-30 13:44 -33.95626 151.18803 24 ft 17 kts 169°
2026-04-30 13:45 -33.95814 151.18851 25 ft 13 kts 167°
2026-04-30 13:45 -33.95902 151.18874 29 ft 13 kts 167°
2026-04-30 13:45 -33.95996 151.18898 28 ft 15 kts 168°
2026-04-30 13:46 -33.96106 151.18927 24 ft 18 kts 168°
2026-04-30 13:46 -33.96230 151.18959 26 ft 19 kts 168°
2026-04-30 13:46 -33.96364 151.18994 25 ft 21 kts 167°
2026-04-30 13:46 -33.96509 151.19031 19 ft 23 kts 167°
2026-04-30 13:47 -33.96657 151.19068 18 ft 20 kts 168°
2026-04-30 13:47 -33.96792 151.19066 17 ft 19 kts 179°
2026-04-30 13:47 -33.96918 151.19095 18 ft 19 kts 168°
2026-04-30 13:47 -33.97030 151.19122 19 ft 7 kts 167°
2026-04-30 13:48 -33.97080 151.19136 19 ft 8 kts 167°
2026-04-30 13:48 -33.97128 151.19176 20 ft 10 kts 116°
2026-04-30 13:48 -33.97116 151.19258 22 ft 10 kts 61°
2026-04-30 13:48 -33.97097 151.19341 22 ft 10 kts 67°
2026-04-30 13:49 -33.97036 151.19369 22 ft 11 kts 351°
2026-04-30 13:49 -33.97020 151.19365 21 ft 2 kts 349°
2026-04-30 13:49 -33.96938 151.19344 20 ft 35 kts 347°
2026-04-30 13:49 -33.96489 151.19226 22 ft 94 kts 348°
2026-04-30 13:50 -33.95698 151.19021 28 ft 137 kts 346°
2026-04-30 13:50 -33.93727 151.18588 671 ft 143 kts 348°
2026-04-30 13:50 -33.92716 151.18374 1094 ft 144 kts 352°
2026-04-30 13:51 -33.91726 151.18159 1506 ft 146 kts 351°
2026-04-30 13:51 -33.90713 151.17938 1818 ft 154 kts 351°
2026-04-30 13:51 -33.89603 151.17716 2047 ft 167 kts 358°
2026-04-30 13:51 -33.88456 151.18055 2235 ft 180 kts 37°
2026-04-30 13:52 -33.87730 151.19320 2555 ft 195 kts 75°
2026-04-30 13:52 -33.87815 151.20984 2932 ft 212 kts 111°
2026-04-30 13:52 -33.88731 151.22452 3303 ft 231 kts 136°
2026-04-30 13:52 -33.90010 151.23719 3744 ft 248 kts 140°
2026-04-30 13:53 -33.91426 151.25017 4230 ft 263 kts 141°
2026-04-30 13:53 -33.92897 151.26349 4977 ft 267 kts 141°
2026-04-30 13:53 -33.94398 151.27701 5807 ft 269 kts 141°
2026-04-30 13:53 -33.95398 151.28599 6338 ft 271 kts 141°
2026-04-30 13:54 -33.97431 151.30429 7334 ft 275 kts 141°
2026-04-30 13:54 -33.98970 151.31821 8018 ft 279 kts 140°
2026-04-30 13:54 -33.99948 151.32820 8471 ft 281 kts 135°
2026-04-30 13:54 -34.01843 151.35056 9375 ft 287 kts 133°
2026-04-30 13:55 -34.03240 151.36790 10048 ft 291 kts 131°
2026-04-30 13:55 -34.04595 151.38622 10626 ft 297 kts 129°
2026-04-30 13:55 -34.05503 151.39898 10831 ft 308 kts 129°
2026-04-30 13:55 -34.07418 151.42638 11199 ft 330 kts 128°
2026-04-30 13:56 -34.08932 151.44811 11428 ft 346 kts 128°
2026-04-30 13:56 -34.09974 151.46301 11575 ft 357 kts 129°
2026-04-30 13:56 -34.11619 151.48640 11806 ft 372 kts 129°
2026-04-30 13:56 -34.13308 151.51026 12269 ft 378 kts 129°
2026-04-30 13:57 -34.15027 151.53445 12850 ft 381 kts 129°
2026-04-30 13:57 -34.16749 151.55859 13405 ft 384 kts 130°
2026-04-30 13:57 -34.18525 151.58345 13966 ft 388 kts 130°
2026-04-30 13:57 -34.20292 151.60824 14459 ft 392 kts 130°
2026-04-30 13:58 -34.22068 151.63319 14954 ft 395 kts 130°
2026-04-30 13:58 -34.25673 151.68405 15956 ft 400 kts 130°
2026-04-30 13:58 -34.27490 151.70974 16455 ft 403 kts 130°
2026-04-30 13:59 -34.29316 151.73554 16967 ft 406 kts 130°
2026-04-30 13:59 -34.31159 151.76160 17484 ft 408 kts 130°
2026-04-30 13:59 -34.33011 151.78789 18012 ft 411 kts 130°
2026-04-30 13:59 -34.34783 151.81307 18508 ft 414 kts 130°
2026-04-30 14:00 -34.36655 151.83966 18985 ft 417 kts 130°
2026-04-30 14:00 -34.40447 151.89352 19910 ft 422 kts 130°
2026-04-30 14:00 -34.42309 151.92029 20380 ft 423 kts 130°
2026-04-30 14:01 -34.44225 151.94819 20835 ft 425 kts 129°
2026-04-30 14:01 -34.46115 151.97588 21287 ft 427 kts 129°
2026-04-30 14:01 -34.48008 152.00360 21697 ft 428 kts 129°
2026-04-30 14:01 -34.49906 152.03148 22107 ft 430 kts 129°
2026-04-30 14:02 -34.51814 152.05954 22494 ft 431 kts 129°
2026-04-30 14:02 -34.53708 152.08733 22864 ft 433 kts 129°
2026-04-30 14:02 -34.55631 152.11549 23231 ft 434 kts 129°
2026-04-30 14:02 -34.57534 152.14330 23587 ft 436 kts 129°
2026-04-30 14:03 -34.59501 152.17213 23951 ft 437 kts 129°
2026-04-30 14:03 -34.61440 152.20057 24236 ft 439 kts 129°
2026-04-30 14:03 -34.63393 152.22923 24528 ft 440 kts 129°
2026-04-30 14:03 -34.65372 152.25828 24818 ft 441 kts 129°
2026-04-30 14:04 -34.67329 152.28702 25100 ft 442 kts 129°
2026-04-30 14:04 -34.69292 152.31588 25392 ft 444 kts 129°
2026-04-30 14:04 -34.71256 152.34477 25674 ft 445 kts 129°
2026-04-30 14:04 -34.73210 152.37362 26060 ft 443 kts 129°
2026-04-30 14:05 -34.75173 152.40267 26490 ft 441 kts 129°
2026-04-30 14:05 -34.77118 152.43144 26915 ft 439 kts 130°
2026-04-30 14:05 -34.79047 152.45999 27317 ft 438 kts 130°
2026-04-30 14:05 -34.80976 152.48856 27735 ft 436 kts 130°
2026-04-30 14:06 -34.82898 152.51706 28125 ft 435 kts 130°
2026-04-30 14:06 -34.86739 152.57400 28925 ft 433 kts 130°
2026-04-30 14:07 -34.90550 152.63052 29736 ft 431 kts 130°
2026-04-30 14:07 -34.92451 152.65884 30134 ft 431 kts 130°
2026-04-30 14:07 -34.94344 152.68706 30517 ft 430 kts 130°
2026-04-30 14:08 -34.98124 152.74343 31195 ft 428 kts 130°
2026-04-30 14:08 -35.00007 152.77148 31536 ft 427 kts 130°
2026-04-30 14:08 -35.03768 152.82747 32231 ft 425 kts 130°
2026-04-30 14:09 -35.05632 152.85524 32576 ft 424 kts 130°
2026-04-30 14:09 -35.07496 152.88308 32930 ft 423 kts 130°
2026-04-30 14:09 -35.11194 152.93869 33656 ft 420 kts 130°
2026-04-30 14:10 -35.13031 152.96635 34010 ft 418 kts 130°
2026-04-30 14:10 -35.14839 152.99354 34347 ft 417 kts 130°
2026-04-30 14:10 -35.16663 153.02095 34633 ft 416 kts 130°
2026-04-30 14:10 -35.18485 153.04832 34857 ft 416 kts 130°
2026-04-30 14:11 -35.20310 153.07578 35058 ft 416 kts 130°
2026-04-30 14:11 -35.22135 153.10324 35244 ft 416 kts 131°
2026-04-30 14:11 -35.23959 153.13070 35400 ft 418 kts 131°
2026-04-30 14:12 -35.27664 153.18648 35455 ft 427 kts 131°
2026-04-30 14:12 -35.31452 153.24371 35459 ft 437 kts 130°
2026-04-30 14:13 -35.35161 153.30002 35456 ft 439 kts 130°